Location: Dulzura
(32.6442°N, 116.7814°W)
Time: 08:37:42
(UTC+00:00)

BREEZE-M DEB (TANK) - Visible Passes

Search period start: 26 June 2022 00:00
Search period end: 06 July 2022 00:00
Orbit: 335 x 11980 km, 49.7° (Epoch: 25 June)

Date Brightness Start Highest point End Pass type
(mag) Time Alt. Az. Time Alt. Az. Time Alt. Az.
26 Jun 6.0 05:02:01 10° W 05:09:30 46° N 05:40:35 10° ENE visible
26 Jun 7.5 09:06:19 10° NW 09:32:37 74° NE 11:12:22 10° SE visible
27 Jun 5.5 04:17:08 10° W 04:23:10 49° NNW 04:46:32 10° ENE visible
27 Jun 7.4 08:21:08 10° NW 08:43:02 66° NE 10:18:35 10° SE visible
28 Jun 4.7 03:32:24 10° WSW 03:37:20 59° NNW 03:55:27 10° NE visible
28 Jun 7.3 07:36:00 10° NW 07:53:59 58° NNE 09:21:09 10° ESE visible
28 Jun 7.8 11:42:07 10° NW 12:23:18 61° WSW 13:54:47 10° S visible
29 Jun 7.1 06:50:54 10° NW 07:05:30 52° NNE 08:19:29 10° ESE visible
29 Jun 7.7 10:56:03 10° NW 11:33:48 71° WSW 13:09:26 10° SSE visible
30 Jun 6.8 06:05:50 10° WNW 06:17:34 47° NNE 07:14:59 10° E visible
30 Jun 7.7 10:10:19 10° NW 10:43:59 82° SW 12:22:27 10° SSE visible
01 Jul 6.5 05:20:45 10° WNW 05:30:08 43° N 06:11:46 10° ENE visible
01 Jul 7.6 09:24:49 10° NW 09:54:07 88° NE 11:33:41 10° SSE visible
02 Jul 6.1 04:35:41 10° WNW 04:43:10 42° N 05:12:59 10° ENE visible
02 Jul 7.5 08:39:29 10° NW 09:04:31 78° NE 10:42:48 10° SE visible
03 Jul 5.7 03:50:41 10° W 03:56:40 43° N 04:18:38 10° ENE visible
03 Jul 7.4 07:54:17 10° NW 08:15:20 69° NE 09:49:13 10° SE visible
03 Jul 7.9 12:01:43 10° WNW 12:42:12 46° WSW 14:06:16 10° S visible
04 Jul 5.0 03:05:44 10° W 03:10:36 49° NNW 03:27:25 10° NE visible
04 Jul 7.2 07:09:08 10° NW 07:26:37 60° NNE 08:52:09 10° ESE visible
04 Jul 7.8 11:14:55 10° NW 11:53:24 56° WSW 13:23:19 10° S visible
05 Jul 7.0 06:24:01 10° NW 06:38:22 53° NNE 07:51:02 10° ESE visible
05 Jul 7.7 10:28:42 10° NW 11:04:03 66° WSW 12:38:18 10° S visible
